Tracking 19817 objects as of 19-Aug-2019
HD Live streaming from Space Station
objects crossing your sky now

COSMOS 2251 DEB

Track COSMOS 2251 DEB now!
10-day predictions


NORAD ID: 40231
Int'l Code: 1993-036BVL
Perigee: 559.7 km
Apogee: 645.1 km
Inclination: 74.0 °
Period: 96.6 minutes
Semi major axis: 6973 km
RCS: Unknown
Launch date: June 16, 1993
Source: Commonwealth of Independent States (former USSR) (CIS)
Launch site: PLESETSK MISSILE AND SPACE COMPLEX (PKMTR)

Note: This is SATELLITE DEBRIS
aabbcc
Your satellite tracking list
Your tracking list is empty




NASA's NSSDC Master Catalog

Two Line Element Set (TLE):
1 40231U 93036BVL 19230.92855233  .00000932  00000-0  95305-4 0  9993
2 40231  74.0105  90.4726 0061257  61.4180 299.3146 14.90853973457221
Source of the keplerian elements: AFSPC